Location: Newark
(49.3000°N, 9.4667°E)
Time: 04:52:36
(UTC+00:00)

Transit 2A Rocket - Pass Details

Date: 25 May 2019
Orbit: 586 x 917 km, 66.7° (Epoch: 18 June)

Event Time Altitude Azimuth Distance (km) Brightness Sun altitude
Rises 02:02:35 0° 317° (NW) 3,420 8.5 -11.0°
Reaches altitude 10° 02:05:27 10° 307° (NW) 2,428 7.6 -10.7°
Maximum altitude 02:10:04 28° 251° (WSW) 1,443 6.0 -10.2°
Drops below altitude 10° 02:14:22 10° 193° (SSW) 2,227 6.9 -9.7°
Enters shadow 02:14:45 - 191° (S) 2,352 7.0 -9.7°
